CAPE
0 0 0 0 5 0 0 0 0 0 0 0 1 4 31 16 49 16 1 15 131 164 294 156 246 272 210 417 268 122 43 1 0 0 0 1 16 0 0 0 0 0 0 5 15 36 41 25 28
0 0 0 1 0 0 0 0 0 0 0 0 0 8 66 77 87 58 86 34 260 364 349 206 215 215 204 327 310 182 97 30 3 1 0 0 60 82 8 1 28 40 0 6 5 13 32 24 22
0 0 0 6 0 0 0 15 2 0 0 0 0 14 41 83 36 75 63 189 433 495 389 276 257 276 200 228 375 236 188 98 10 4 4 4 82 220 124 110 50 25 0 8 23 26 23 18 20
0 0 0 0 0 0 11 27 49 6 0 0 0 3 0 0 14 0 6 493 606 549 475 376 346 307 222 199 280 313 252 192 78 64 6 5 124 198 182 44 31 48 74 32 21 21 15 14 19
0 0 0 0 0 0 1 0 0 0 0 0 0 0 0 0 0 0 0 278 610 636 561 474 387 393 360 238 144 248 276 232 131 247 159 56 165 125 84 41 28 25 25 46 33 21 8 0 11
0 0 0 0 0 0 0 0 0 0 0 0 0 0 0 0 0 0 0 162 542 641 555 586 457 450 409 389 248 61 199 131 177 289 144 103 168 92 70 45 29 18 11 15 31 25 15 0 24
0 0 0 0 0 0 0 0 0 0 0 0 0 0 0 0 0 0 0 0 497 468 380 290 356 413 351 386 332 127 35 30 46 185 168 125 157 132 42 27 24 13 13 10 17 19 27 15 34
0 0 0 0 0 0 0 0 0 0 0 0 0 0 0 0 0 0 0 0 0 0 0 0 63 191 262 262 233 275 129 60 11 74 169 149 124 60 12 31 25 15 29 26 17 18 18 31 28
0 0 0 0 0 0 0 0 0 0 0 0 0 0 0 0 0 0 0 0 0 0 0 0 0 0 0 108 201 144 178 140 117 35 4 58 52 33 27 14 15 28 9 20 17 18 23 38 30
0 0 0 0 0 0 0 0 0 0 0 0 0 0 0 0 0 0 0 0 0 0 0 0 0 0 0 0 9 128 154 103 109 70 46 39 54 49 34 25 23 28 28 21 16 12 36 32 31
0 0 0 0 0 0 0 0 0 0 0 0 0 0 0 0 0 0 0 0 0 0 0 0 0 0 0 0 0 0 4 53 38 24 29 34 46 35 38 24 16 18 36 29 20 11 37 33 21
0 0 0 0 0 0 0 0 0 0 0 0 0 0 0 0 0 0 0 0 0 0 0 0 0 0 0 0 0 0 0 0 0 15 15 0 0 5 21 23 15 19 23 16 13 0 7 5 11
0 0 0 0 0 0 0 0 0 0 0 0 0 0 0 0 0 0 0 0 0 0 0 0 0 0 0 0 0 0 0 0 0 0 0 16 7 8 5 9 18 22 16 18 12 1 2 6 2
0 0 0 0 0 0 0 0 0 0 0 0 0 0 0 0 0 0 0 0 0 0 0 0 0 0 0 0 0 0 0 0 0 0 0 0 4 13 23 18 1 18 11 20 13 5 0 1 1
0 0 0 0 0 0 0 0 0 0 0 0 0 0 0 0 0 0 0 0 0 0 0 0 0 0 0 0 0 0 0 0 0 0 0 0 0 0 20 25 37 10 10 21 18 18 10 3 2
0 0 0 0 0 0 0 0 0 0 0 0 0 0 0 0 0 0 0 0 0 0 0 0 0 0 0 0 0 0 0 0 0 0 0 0 0 0 0 14 13 11 19 34 31 33 13 8 0
0 0 0 0 0 0 0 0 0 0 0 0 0 0 0 0 0 0 0 0 0 0 0 0 0 0 0 0 0 0 0 0 0 0 0 0 0 0 0 0 4 3 13 51 46 32 31 6 1
0 0 0 0 0 0 0 0 0 0 0 0 0 0 0 0 0 0 0 0 0 0 0 0 0 0 0 0 0 0 0 0 0 0 0 0 0 0 0 0 0 4 12 28 51 39 20 4 1
0 0 0 0 0 0 0 0 0 0 0 0 0 0 0 0 0 0 0 0 0 0 0 0 0 0 0 0 0 0 0 0 0 0 0 0 0 0 0 0 0 0 3 32 27 27 12 2 1
0 0 0 0 0 0 0 0 0 0 0 0 0 0 0 0 0 0 0 0 0 0 0 0 0 0 0 0 0 0 0 0 0 0 0 0 0 0 0 0 0 0 0 2 37 1 1 0 1
0 0 0 0 0 0 0 0 0 0 0 0 0 0 0 0 0 0 0 0 0 0 0 0 0 0 0 0 0 0 0 0 0 0 0 0 0 0 0 0 0 0 0 0 1 12 0 0 3
0 0 0 0 0 0 0 0 0 0 0 0 0 0 0 0 0 0 0 0 0 0 0 0 0 0 0 0 0 0 0 0 0 0 0 0 0 0 0 0 0 0 0 0 0 2 0 0 1
0 0 0 0 0 0 0 0 0 0 0 0 0 0 0 0 0 0 0 0 0 0 0 0 0 0 0 0 0 0 0 0 0 0 0 0 0 0 0 0 0 0 0 0 0 0 0 0 0
0 0 0 0 0 0 0 0 0 0 0 0 0 0 0 0 0 0 0 0 0 0 0 0 0 0 0 0 0 0 0 0 0 0 0 0 0 0 0 0 0 0 0 0 0 0 1 0 0
0 0 0 0 0 0 0 0 0 0 0 0 0 0 0 0 0 0 0 0 0 0 0 0 0 0 0 0 0 0 0 0 0 0 1 2 1 5 2 1 0 0 0 0 0 0 2 0 0
0 0 0 0 0 0 0 0 0 0 0 0 0 0 0 0 0 0 0 0 0 0 0 0 0 0 0 0 0 0 0 0 0 0 2 3 2 0 0 0 0 0 0 0 2 0 23 1 0
0 0 0 0 0 0 0 0 0 0 0 0 0 0 0 0 0 0 0 0 0 0 0 0 0 0 0 0 0 1 0 1 1 0 0 2 1 1 2 0 0 0 0 0 9 0 10 0 0
0 0 0 0 0 0 0 0 0 0 0 0 0 0 0 0 0 0 0 0 0 0 0 0 0 0 1 0 0 1 1 1 2 1 0 1 4 1 0 1 9 2 0 0 0 4 6 0 0
0 0 0 0 0 0 0 0 0 0 0 0 0 0 0 0 0 0 0 0 0 0 0 0 0 1 0 1 1 1 1 1 1 1 0 0 1 4 1 4 4 3 0 0 0 0 17 0 0
0 0 0 0 0 0 0 0 0 0 0 0 0 0 0 0 0 0 0 0 0 0 0 0 1 0 1 1 1 1 1 1 1 1 1 1 0 0 0 0 0 0 0 0 0 0 0 0 0
CIN
-0 -0 -0 -7 -18 -0 -0 -0 -0 -0 -0 -0 -22 -18 -79 -166 -94 -54 -12 -230 -185 -175 -100 -122 -50 -19 -20 -5 -4 -34 -44 -0 -0 -0 -0 -0 -102 -0 -0 -0 -0 -0 -0 -0 -0 -1 -1 -1 -0
-0 -0 -0 -15 -0 -0 -0 -0 -0 -0 -0 -0 -3 -109 -82 -91 -150 -153 -188 -202 -140 -127 -89 -120 -67 -26 -24 -2 -0 -16 -30 -37 -0 -0 -0 -0 -64 -65 -58 -0 -123 -115 -0 -0 -1 -2 -5 -4 -0
-0 -0 -0 -17 -0 -0 -0 -34 -39 -0 -0 -0 -2 -79 -162 -132 -177 -162 -246 -175 -111 -70 -65 -81 -53 -19 -27 -4 -0 -3 -13 -17 -20 -0 -0 -0 -60 -13 -28 -45 -108 -148 -0 -0 -0 -3 -2 -1 -1
-0 -0 -0 -0 -0 -0 -28 -33 -56 -44 -0 -0 -0 -104 -6 -0 -185 -0 -193 -84 -69 -71 -59 -50 -48 -28 -35 -27 -4 -2 -3 -4 -21 -32 -1 -0 -19 -8 -14 -62 -1 -98 -79 -94 -4 -0 -4 -2 -2
-0 -0 -0 -0 -0 -0 -17 -0 -0 -18 -0 -0 -0 -0 -0 -0 -0 -0 -0 -128 -34 -31 -39 -38 -45 -25 -18 -33 -44 -9 -2 -4 -15 -0 -7 -12 -0 -18 -45 -5 -7 -5 -2 -104 -2 -5 -0 -0 -1
-0 -0 -0 -0 -0 -0 -0 -0 -0 -0 -0 -0 -0 -0 -0 -0 -0 -0 -0 -135 -34 -19 -27 -27 -29 -23 -20 -16 -19 -61 -11 -7 -4 -1 -4 -9 -1 -14 -52 -10 -14 -9 -1 -3 -3 -2 -2 -0 -0
-0 -0 -0 -0 -0 -0 -0 -0 -0 -0 -0 -0 -0 -0 -0 -0 -0 -0 -0 -0 -29 -24 -25 -27 -24 -14 -15 -17 -19 -34 -44 -42 -21 -3 -4 -8 -3 -9 -19 -17 -17 -12 -5 -2 -5 -3 -2 -2 -2
-0 -0 -0 -0 -0 -0 -0 -0 -0 -0 -0 -0 -0 -0 -0 -0 -0 -0 -0 -0 -0 -0 -0 -0 -71 -12 -10 -15 -16 -23 -27 -19 -31 -9 -6 -5 -5 -25 -20 -21 -16 -7 -4 -2 -4 -5 -4 -2 -4
-0 -0 -0 -0 -0 -0 -0 -0 -0 -0 -0 -0 -0 -0 -0 -0 -0 -0 -0 -0 -0 -0 -0 -0 -0 -0 -0 -23 -3 -21 -28 -32 -9 -17 -15 -9 -10 -11 -11 -11 -20 -7 -4 -4 -7 -7 -4 -4 -7
-0 -0 -0 -0 -0 -0 -0 -0 -0 -0 -0 -0 -0 -0 -0 -0 -0 -0 -0 -0 -0 -0 -0 -0 -0 -0 -0 -0 -27 -17 -7 -7 -9 -23 -16 -12 -10 -13 -14 -11 -15 -13 -11 -10 -8 -8 -3 -6 -6
-0 -0 -0 -0 -0 -0 -0 -0 -0 -0 -0 -0 -0 -0 -0 -0 -0 -0 -0 -0 -0 -0 -0 -0 -0 -0 -0 -0 -0 -0 -2 -3 -8 -27 -62 -44 -17 -24 -18 -18 -18 -19 -23 -16 -10 -9 -3 -10 -11
-0 -0 -0 -0 -0 -0 -0 -0 -0 -0 -0 -0 -0 -0 -0 -0 -0 -0 -0 -0 -0 -0 -0 -0 -0 -0 -0 -0 -0 -0 -0 -0 -0 -5 -12 -18 -44 -30 -23 -23 -30 -30 -33 -29 -23 -0 -12 -30 -19
-0 -0 -0 -0 -0 -0 -0 -0 -0 -0 -0 -0 -0 -0 -0 -0 -0 -0 -0 -0 -0 -0 -0 -0 -0 -0 -0 -0 -0 -0 -0 -0 -0 -0 -0 -10 -0 -13 -28 -28 -29 -47 -49 -32 -31 -5 -12 -26 -42
-0 -0 -0 -0 -0 -0 -0 -0 -0 -0 -0 -0 -0 -0 -0 -0 -0 -0 -0 -0 -0 -0 -0 -0 -0 -0 -0 -0 -0 -0 -0 -0 -0 -0 -0 -0 -9 -11 -7 -14 -5 -52 -58 -39 -41 -45 -0 -23 -48
-0 -0 -0 -0 -0 -0 -0 -0 -0 -0 -0 -0 -0 -0 -0 -0 -0 -0 -0 -0 -0 -0 -0 -0 -0 -0 -0 -0 -0 -0 -0 -0 -0 -0 -0 -0 -0 -0 -0 -8 -30 -46 -66 -47 -46 -51 -48 -53 -52
-0 -0 -0 -0 -0 -0 -0 -0 -0 -0 -0 -0 -0 -0 -0 -0 -0 -0 -0 -0 -0 -0 -0 -0 -0 -0 -0 -0 -0 -0 -0 -0 -0 -0 -0 -0 -0 -0 -0 -2 -12 -16 -42 -48 -34 -41 -38 -48 -3
-0 -0 -0 -0 -0 -0 -0 -0 -0 -0 -0 -0 -0 -0 -0 -0 -0 -0 -0 -0 -0 -0 -0 -0 -0 -0 -0 -0 -0 -0 -0 -0 -0 -0 -0 -0 -0 -0 -0 -0 -0 -11 -18 -28 -31 -29 -37 -54 -0
-0 -0 -0 -0 -0 -0 -0 -0 -0 -0 -0 -0 -0 -0 -0 -0 -0 -0 -0 -0 -0 -0 -0 -0 -0 -0 -0 -0 -0 -0 -0 -0 -0 -0 -0 -0 -0 -0 -0 -0 -0 -1 -0 -5 -1 -14 -43 -31 -0
-0 -0 -0 -0 -0 -0 -0 -0 -0 -0 -0 -0 -0 -0 -0 -0 -0 -0 -0 -0 -0 -0 -0 -0 -0 -0 -0 -0 -0 -0 -0 -0 -0 -0 -0 -0 -0 -0 -0 -0 -0 -0 -0 -0 -2 -19 -42 -0 -0
-0 -0 -0 -0 -0 -0 -0 -0 -0 -0 -0 -0 -0 -0 -0 -0 -0 -0 -0 -0 -0 -0 -0 -0 -0 -0 -0 -0 -0 -0 -0 -0 -0 -0 -0 -0 -0 -0 -0 -0 -0 -0 -0 -0 -0 -0 -0 -0 -0
-0 -0 -0 -0 -0 -0 -0 -0 -0 -0 -0 -0 -0 -0 -0 -0 -0 -0 -0 -0 -0 -0 -0 -0 -0 -0 -0 -0 -0 -0 -0 -0 -0 -0 -0 -0 -0 -0 -0 -0 -0 -0 -0 -0 -0 -11 -0 -0 -0
-0 -0 -0 -0 -0 -0 -0 -0 -0 -0 -0 -0 -0 -0 -0 -0 -0 -0 -0 -0 -0 -0 -0 -0 -0 -0 -0 -0 -0 -0 -0 -0 -0 -0 -0 -0 -0 -0 -0 -0 -0 -0 -0 -0 -0 -0 -0 -0 -0
-0 -0 -0 -0 -0 -0 -0 -0 -0 -0 -0 -0 -0 -0 -0 -0 -0 -0 -0 -0 -0 -0 -0 -0 -0 -0 -0 -0 -0 -0 -0 -0 -0 -0 -0 -0 -0 -0 -0 -0 -0 -0 -0 -0 -0 -0 -0 -0 -0
-0 -0 -0 -0 -0 -0 -0 -0 -0 -0 -0 -0 -0 -0 -0 -0 -0 -0 -0 -0 -0 -0 -0 -0 -0 -0 -0 -0 -0 -0 -0 -0 -0 -0 -0 -0 -0 -0 -0 -0 -0 -0 -0 -0 -0 -0 -0 -0 -0
-0 -0 -0 -0 -0 -0 -0 -0 -0 -0 -0 -0 -0 -0 -0 -0 -0 -0 -0 -0 -0 -0 -0 -0 -0 -0 -0 -0 -0 -0 -0 -0 -0 -0 -0 -0 -0 -1 -4 -0 -0 -0 -0 -0 -0 -0 -5 -0 -0
-0 -0 -0 -0 -0 -0 -0 -0 -0 -0 -0 -0 -0 -0 -0 -0 -0 -0 -0 -0 -0 -0 -0 -0 -0 -0 -0 -0 -0 -0 -0 -0 -0 -0 -0 -0 -1 -1 -0 -0 -1 -0 -0 -0 -0 -0 -23 -0 -0
-0 -0 -0 -0 -0 -0 -0 -0 -0 -0 -0 -0 -0 -0 -0 -0 -0 -0 -0 -0 -0 -0 -0 -0 -0 -0 -0 -0 -0 -0 -0 -0 -0 -0 -0 -0 -0 -0 -1 -0 -0 -0 -0 -0 -0 -0 -26 -0 -0
-0 -0 -0 -0 -0 -0 -0 -0 -0 -0 -0 -0 -0 -0 -0 -0 -0 -0 -0 -0 -0 -0 -0 -0 -0 -0 -0 -0 -0 -0 -0 -0 -0 -0 -0 -0 -0 -0 -0 -0 -1 -3 -0 -0 -0 -2 -5 -0 -0
-0 -0 -0 -0 -0 -0 -0 -0 -0 -0 -0 -0 -0 -0 -0 -0 -0 -0 -0 -0 -0 -0 -0 -0 -0 -0 -0 -0 -0 -0 -0 -0 -0 -0 -0 -0 -0 -2 -5 -4 -1 -3 -0 -0 -0 -0 -0 -0 -0
-0 -0 -0 -0 -0 -0 -0 -0 -0 -0 -0 -0 -0 -0 -0 -0 -0 -0 -0 -0 -0 -0 -0 -0 -0 -0 -0 -0 -0 -0 -0 -0 -0 -0 -0 -0 -0 -0 -0 -0 -0 -0 -0 -0 -0 -0 -0 -0 -0
Wind_Speed
20 23 13 12 16 17 20 19 18 20 19 19 20 17 15 15 19 22 19 22 19 10 6 5 4 4 3 2 2 1 1 2 3 5 5 5 4 3 1 2 2 2 2 1 2 3 3 2 2
9 12 12 11 15 19 20 17 16 17 19 20 14 18 18 18 17 18 18 25 17 9 7 5 3 2 1 1 1 1 1 2 4 6 6 6 5 3 2 3 2 4 3 1 1 2 2 3 2
12 14 10 10 13 15 16 13 14 16 18 18 17 17 19 20 20 21 23 23 15 10 7 7 3 3 3 4 2 2 3 4 4 6 8 8 7 5 3 2 4 3 3 3 2 0 0 0 2
14 15 14 8 10 11 13 16 15 18 16 17 17 19 18 16 19 22 24 19 15 11 9 7 4 3 5 6 6 4 4 5 7 5 6 7 9 9 7 5 4 2 2 2 1 1 1 1 1
15 15 13 10 8 12 12 14 16 16 20 21 19 19 19 13 20 23 23 22 18 14 10 8 6 6 7 6 7 9 8 7 7 10 8 6 8 9 8 7 6 5 3 3 2 2 2 3 4
14 15 13 12 11 13 12 7 14 18 20 21 18 19 17 17 20 24 24 24 21 19 19 19 13 11 11 12 11 11 11 12 10 11 11 9 9 9 10 10 10 10 9 6 5 3 3 4 5
14 14 14 14 14 12 12 16 14 7 20 15 18 14 12 17 22 23 23 23 21 21 23 24 24 23 18 16 17 15 14 14 14 13 13 12 12 11 12 13 13 13 12 10 8 6 5 6 5
12 14 13 12 11 11 12 13 11 11 10 24 17 13 12 14 18 20 21 22 21 21 22 23 24 27 28 28 23 19 19 18 16 15 15 15 15 15 14 15 17 16 14 12 10 8 8 8 7
11 11 10 10 9 9 10 10 8 5 7 6 14 13 16 20 21 22 22 23 24 23 24 25 26 25 26 29 29 27 24 20 21 20 18 18 19 19 19 17 16 17 16 14 12 11 10 10 10
8 8 9 11 10 10 10 10 10 11 10 10 12 12 18 23 22 22 23 24 24 27 28 27 28 28 29 28 29 28 22 25 26 25 24 22 23 23 22 21 18 18 19 16 15 13 12 12 13
8 9 9 10 11 13 15 17 14 14 17 12 15 17 21 21 17 20 22 21 22 24 27 28 29 29 30 30 30 30 32 23 30 24 23 26 27 27 26 24 22 21 20 18 17 17 16 14 14
11 10 11 12 13 17 19 16 13 11 13 16 14 15 18 19 16 18 20 19 20 23 26 26 27 27 28 29 31 32 33 32 33 32 32 33 27 31 29 28 26 25 24 22 20 20 18 17 16
11 13 14 15 17 17 16 14 19 13 16 18 19 18 20 23 23 22 23 20 21 24 25 25 26 27 28 29 30 32 34 35 36 35 33 33 32 31 31 30 29 27 25 25 23 22 20 19 18
12 13 16 18 19 18 20 21 21 16 14 17 23 27 24 25 24 26 21 19 22 25 25 26 28 28 29 31 31 32 33 36 37 37 37 34 35 33 32 33 30 29 27 27 26 25 23 22 21
13 14 15 20 21 21 26 19 12 13 16 20 29 29 25 23 24 18 17 17 21 23 26 29 31 31 33 34 36 37 37 37 38 39 38 37 36 35 34 36 31 32 31 30 29 28 27 25 23
15 17 19 19 24 21 22 15 12 17 24 33 29 26 23 22 18 14 12 16 21 26 28 30 31 34 38 40 41 41 42 42 43 43 42 41 39 39 41 39 38 33 31 31 32 31 31 30 28
19 21 24 26 20 21 18 17 15 25 36 31 28 25 21 20 17 19 20 21 24 27 32 34 36 40 43 45 47 48 48 49 49 48 47 46 44 41 42 41 41 37 35 34 35 34 33 32 29
22 24 24 23 22 24 23 10 21 30 30 25 24 22 20 19 20 20 23 27 31 35 38 41 44 46 48 48 48 49 52 53 52 52 51 49 47 45 43 44 45 42 37 40 37 36 34 32 31
19 22 23 23 21 28 20 19 25 30 26 22 21 22 19 18 19 22 28 33 37 39 43 46 49 49 49 52 54 55 56 54 53 53 52 52 52 51 51 47 45 41 44 35 35 35 34 35 32
20 22 22 22 20 30 27 21 28 22 20 20 20 20 20 22 25 29 34 37 41 44 48 51 49 50 51 51 52 54 56 57 57 55 56 56 56 55 53 52 49 47 46 46 41 35 33 35 35
21 19 22 24 29 23 27 23 18 21 19 19 20 20 21 25 28 33 35 39 41 44 47 49 49 52 52 51 52 53 53 54 54 53 54 54 54 55 56 54 53 48 45 46 42 40 38 37 39
23 17 24 27 27 21 27 24 22 20 19 19 19 18 23 30 32 30 34 41 43 45 49 48 50 51 46 45 48 50 53 56 54 54 52 53 51 52 52 53 51 52 50 51 50 43 44 40 37
21 23 25 24 22 24 21 24 24 21 19 15 14 15 25 31 28 33 33 35 42 43 45 41 41 41 40 40 42 47 53 52 52 51 53 52 52 51 53 55 56 55 53 50 50 48 48 45 43
22 22 23 22 21 22 21 24 25 19 18 15 10 12 23 30 34 32 32 33 36 37 35 37 37 37 37 38 38 41 48 52 54 53 53 53 51 53 54 55 55 53 54 56 53 52 47 47 45
21 23 26 24 23 23 22 23 19 17 12 13 12 18 31 34 34 37 37 38 36 36 32 35 36 38 39 41 41 41 43 48 53 54 52 52 51 48 49 50 54 55 54 54 53 51 47 49 46
21 19 21 27 27 27 23 19 22 18 14 13 17 25 31 36 36 34 36 38 37 34 32 33 37 37 38 41 40 42 38 42 47 50 51 50 50 49 49 51 50 52 52 51 50 53 53 48 49
18 19 17 20 22 23 20 21 20 14 9 14 19 30 40 44 35 36 35 37 37 34 32 32 35 34 35 36 37 40 37 38 43 46 47 47 46 47 47 48 52 51 52 50 50 50 52 46 48
17 14 18 20 24 29 22 24 20 19 18 16 22 38 44 35 33 35 37 38 36 34 31 31 32 30 30 31 31 33 36 34 33 36 42 44 43 43 45 46 47 46 48 50 49 52 50 45 44
15 15 17 18 18 22 27 25 15 17 17 17 21 39 37 35 33 34 37 39 37 33 32 31 31 26 26 23 28 26 21 32 24 21 31 38 40 40 41 42 44 45 46 47 47 50 50 47 42
16 15 13 17 19 18 22 23 15 15 16 17 25 37 34 32 32 35 37 42 40 35 33 32 30 25 24 23 22 17 13 17 10 12 17 36 38 37 39 40 41 42 42 44 45 46 47 49 44
Wind_Direction
275 296 319 318 294 293 284 288 300 300 292 307 306 299 302 308 292 286 307 314 318 341 25 64 80 84 87 110 128 112 0 307 301 296 292 287 286 282 233 147 131 118 102 99 297 298 311 311 306
172 81 321 315 297 285 285 293 302 307 305 310 316 306 306 298 310 305 311 305 319 338 352 18 59 37 12 331 172 205 279 297 297 293 289 282 272 263 233 151 158 134 124 101 117 289 290 288 284
86 82 48 321 300 294 299 306 307 314 314 316 307 319 306 301 301 304 306 306 328 331 340 338 349 327 318 296 246 235 266 283 287 289 287 282 270 251 220 227 162 156 143 138 134 86 86 195 233
74 75 66 357 316 315 313 310 320 310 314 321 315 307 317 325 309 303 306 317 325 327 325 331 336 296 291 290 280 263 256 272 282 276 277 276 268 260 256 219 210 188 161 145 154 213 250 242 193
57 71 79 54 25 326 322 334 323 330 303 310 309 312 311 345 312 302 305 309 311 312 314 315 319 306 287 274 274 275 272 269 271 275 269 262 263 256 249 236 231 243 244 262 275 228 258 211 171
80 91 63 115 104 114 124 134 167 302 292 300 320 322 326 328 321 302 305 308 305 303 299 293 296 299 290 281 278 277 272 274 271 272 267 258 257 251 249 246 252 259 266 266 261 245 226 191 177
101 94 109 123 137 127 122 186 144 32 293 330 335 347 358 337 317 310 312 315 315 307 300 299 292 290 292 282 278 276 275 272 271 270 265 257 255 249 247 251 257 258 263 263 260 241 225 195 204
64 81 74 107 105 104 120 140 114 6 165 283 338 356 356 350 345 325 320 320 322 321 315 310 305 297 291 290 284 277 275 273 268 267 267 261 258 256 251 253 256 258 261 258 250 241 225 217 215
38 44 75 65 75 54 70 47 81 118 169 31 348 346 339 332 327 325 322 315 308 312 315 314 310 312 307 298 291 284 279 271 269 269 266 263 262 261 261 256 254 256 256 254 244 242 232 228 228
30 33 64 41 42 38 31 18 16 8 5 354 346 344 335 325 327 325 321 316 312 305 306 306 305 304 303 304 299 296 284 276 270 268 268 266 263 263 260 259 254 252 253 248 246 237 232 231 237
21 14 24 22 13 358 348 342 356 351 342 352 343 336 331 331 335 331 327 324 319 316 311 308 305 304 302 300 298 295 291 290 278 266 263 265 263 261 258 258 258 256 249 251 247 240 243 237 234
360 2 3 6 356 342 337 346 353 351 348 344 345 343 341 339 340 335 331 326 322 319 316 313 310 308 305 301 297 295 292 292 291 275 264 262 260 258 257 257 256 254 250 249 247 243 245 234 234
351 356 345 346 339 342 344 347 335 333 340 344 344 343 337 331 327 325 323 322 319 317 316 315 313 311 308 304 301 296 292 289 287 290 291 268 264 258 255 257 255 252 249 246 246 241 240 236 234
1 351 339 331 334 341 338 334 334 341 349 344 340 331 328 325 325 324 320 317 316 315 312 311 309 309 307 304 301 298 296 290 287 288 287 286 279 264 260 257 252 249 249 246 246 241 239 239 238
357 346 343 333 333 338 331 341 358 4 353 341 332 332 330 328 328 328 327 324 323 322 315 309 307 306 303 300 298 296 294 292 289 286 287 284 284 283 264 258 252 251 250 246 245 243 243 241 242
341 334 328 334 333 342 343 348 359 352 342 327 335 338 340 338 339 339 340 333 330 321 319 317 315 309 303 299 296 294 291 289 286 285 283 282 281 280 275 262 256 254 248 246 244 243 243 243 242
324 316 315 319 341 339 345 344 343 336 324 331 337 339 344 347 352 342 337 332 329 326 321 316 313 308 304 301 296 292 288 286 284 282 280 278 278 279 275 278 258 253 251 247 244 243 240 241 241
307 310 320 326 336 331 331 312 327 331 331 340 344 347 350 353 346 344 336 331 326 320 316 312 310 307 304 302 298 295 291 286 283 280 278 277 274 273 275 271 271 255 249 248 243 239 240 239 237
326 323 323 330 337 332 343 331 328 328 334 343 349 349 355 351 347 341 333 328 325 321 317 314 310 308 306 301 298 296 291 289 284 280 277 274 272 271 268 267 266 267 256 240 237 239 234 240 237
325 323 329 334 342 332 336 335 329 336 342 347 352 354 353 344 339 334 331 329 326 323 318 313 312 311 307 303 300 296 292 288 284 281 277 274 271 268 265 263 263 263 261 260 239 234 236 240 231
326 331 334 335 333 340 340 346 349 344 345 349 352 352 348 342 337 335 335 332 330 327 323 319 315 312 308 305 302 297 293 289 285 282 278 274 270 267 263 261 259 259 258 258 254 231 230 234 239
320 339 334 331 335 345 345 344 344 340 339 340 344 350 344 335 338 343 339 334 332 329 325 321 318 315 313 309 303 299 293 288 285 283 281 276 271 266 262 258 256 254 256 256 257 250 229 234 230
326 331 332 337 341 343 349 347 348 347 339 339 347 354 342 341 347 343 342 339 335 334 332 330 328 325 322 317 310 303 294 290 288 285 280 277 271 267 263 258 256 254 253 255 255 259 231 230 234
326 335 339 343 346 346 352 352 350 355 355 6 14 3 351 347 345 347 345 343 340 340 340 336 333 330 326 323 318 310 301 293 288 285 280 276 273 267 262 257 254 253 252 250 252 254 242 230 233
328 332 332 338 344 346 354 351 354 2 11 11 6 354 343 346 348 348 348 347 345 343 343 340 337 332 328 322 318 314 308 298 288 283 280 276 271 266 261 257 253 251 252 252 252 252 252 236 230
328 339 340 332 339 342 350 356 2 8 11 8 359 347 347 346 350 351 351 350 347 346 345 344 340 335 332 326 321 316 314 304 294 285 279 276 270 266 262 257 255 251 250 249 248 249 247 244 236
333 337 351 347 349 348 356 354 348 3 357 356 352 342 338 341 353 353 353 353 352 349 347 345 343 341 337 333 329 323 319 311 300 289 280 275 271 265 261 257 252 252 250 249 249 246 245 242 243
331 351 345 348 345 342 350 351 358 5 5 358 350 336 337 351 355 355 355 356 357 355 352 350 348 345 343 341 339 333 327 323 313 297 282 272 270 265 259 256 251 252 249 247 247 246 244 243 243
332 337 343 349 352 349 347 352 5 1 1 358 354 344 347 352 355 357 357 358 0 360 359 357 355 354 354 350 348 345 338 336 330 317 293 274 267 263 257 254 250 251 249 247 248 249 242 240 243
328 331 340 342 346 348 347 344 9 5 5 358 351 347 349 355 357 358 360 360 2 3 2 3 4 4 3 0 359 354 341 290 344 331 313 271 263 261 255 253 248 250 248 246 248 251 240 236 242